Flag for U.S.A. Weather past 2 weeks in Youngstown, Ohio, U.S.A.

Now
46 °F

Low clouds.


Feels Like: 41 °F
Forecast: 43 / 51 °F
Wind: 12 mph from North

Location: Youngstown-Warren Regional Airport

Current Time: Oct 22, 2014 at 4:32:42 AM

Latest Report: Oct 22, 2014 at 3:51 AM


Visibility: 10 mi

Pressure: 30.10 "Hg

Humidity: 93%

Dew point: 44 °F

Location of YoungstownLocation

Historic Weather in Youngstown — Graph

°F

Youngstown temperature yesterday

Maximum temperature yesterday: 51 °F (at 3:51 AM)
Minimum temperature yesterday: 47 °F (at 2:51 PM)
Average temperature yesterday: 49 °F

Past Weeks' High & Low Weather Summary

 TemperatureHumidityPressure
High79 °F (Oct 14, 3:51 PM)100% (Oct 10, 5:51 AM)30.24 "Hg (Oct 10, 5:51 AM)
Low31 °F (Oct 12, 5:51 AM)42% (Oct 14, 4:51 PM)29.57 "Hg (Oct 17, 2:51 PM)
Average53 °F79%29.94 "Hg
* Reported Oct 7 2:51 AM — Oct 22 2:51 AM, Youngstown, Weather by CustomWeather, © 2014

Note: Actual official high and low records may vary slightly from our data, if they occured in-between our weather recording intervals... More about our weather records

Advertising

Youngstown weather history for previous 24 hours

 ConditionsComfort  
Time TempWeatherWind HumidityBarometerVisibility
2:51 AM
Oct 22
46 °FMostly cloudy.9 mph93%30.09 "Hg10 mi
1:51 AM46 °FLight rain. Fog.12 mph93%30.08 "Hg4 mi
12:51 AM47 °FLight rain. Low clouds.14 mph90%30.08 "Hg10 mi
11:51 PM
Oct 21
47 °FLow clouds.10 mph93%30.08 "Hg10 mi
10:51 PM47 °FLow clouds.13 mph93%30.06 "Hg10 mi
9:51 PM47 °FLow clouds.10 mph93%30.05 "Hg10 mi
8:59 PM48 °FMostly cloudy.13 mph89%30.02 "Hg10 mi
7:51 PM47 °FLight rain. Fog.12 mph93%30.01 "Hg5 mi
6:51 PM47 °FLight rain. Low clouds.8 mph93%29.99 "Hg8 mi
5:51 PM47 °FLight rain. Fog.7 mph93%29.98 "Hg2 mi
4:51 PM47 °FLight rain. Fog.8 mph93%29.96 "Hg4 mi
3:51 PM47 °FLight rain. Fog.9 mph93%29.95 "Hg5 mi
2:51 PM47 °FLight rain. Fog.16 mph93%29.93 "Hg2 mi
1:51 PM49 °FLight rain. Mostly cloudy.13 mph90%29.92 "Hg10 mi
1:04 PM49 °FRain. Fog.14 mph93%29.91 "Hg1 mi
11:51 AM51 °FMostly cloudy.9 mph86%29.90 "Hg7 mi
10:51 AM50 °FLight rain. Fog.10 mph93%29.90 "Hg3 mi
9:51 AM50 °FLight rain. Fog.8 mph96%29.89 "Hg3 mi
8:51 AM50 °FLight rain. Fog.8 mph93%29.88 "Hg2 mi
7:51 AM50 °FLight rain. Fog.9 mph93%29.85 "Hg2 mi
6:51 AM51 °FRain. Fog.7 mph92%29.84 "Hg1 mi
5:51 AM51 °FLight rain. Fog.3 mph96%29.83 "Hg1 mi
4:51 AM51 °FLight rain. Fog.No wind96%29.83 "Hg1 mi
Weather by CustomWeather, © 2014

See weather overviewHow to use our weather pages